RH
98 99 98 98 98 98 99 98 99 99 98 96 96 96 97 99 100 99 96 74 62 58 85 88 86 99 99 89 75 64 60 69 68 67 58 74 94 91 94 79 74 76 58 80 88 58 56
98 97 98 99 99 91 90 97 98 98 100 99 96 100 99 100 99 100 99 69 84 55 88 91 86 100 99 97 70 60 62 69 72 72 66 70 82 87 95 91 93 73 64 64 64 72 58
99 97 98 96 87 84 80 89 89 97 96 97 98 99 96 99 100 100 99 70 56 60 63 98 90 97 99 86 72 71 72 72 71 75 70 66 86 95 100 87 70 65 72 74 73 72 73
99 97 99 97 86 88 86 93 76 78 99 98 77 96 93 86 95 100 99 65 44 44 53 99 89 92 97 79 77 76 77 78 82 78 72 66 90 98 100 91 83 79 89 98 74 73 78
99 97 99 98 98 97 94 89 80 75 88 98 84 78 97 96 99 100 97 56 46 54 68 96 89 98 89 76 80 80 89 90 87 81 76 94 97 93 96 94 84 82 89 99 87 76 85
98 96 96 97 95 92 97 93 92 84 88 98 70 65 99 84 100 100 95 60 54 62 68 96 97 99 81 71 78 70 76 87 87 80 83 99 99 95 96 98 93 91 96 86 85 84 79
93 96 95 92 94 96 96 96 85 98 81 94 86 63 94 82 99 99 94 68 86 89 97 67 76 78 68 76 71 67 76 87 81 90 91 94 97 100 100 92 94 78 88 95 80 82 81
98 94 86 92 94 92 94 97 97 95 88 88 69 70 71 100 100 100 92 68 70 67 69 62 67 77 68 72 71 82 73 90 85 86 82 91 97 79 91 88 85 79 82 92 91 83 79
97 95 96 93 90 88 87 91 90 95 92 99 66 68 86 79 100 99 88 67 66 66 70 68 66 67 71 76 75 89 87 83 80 91 87 97 76 79 85 96 81 82 83 93 88 82 83
98 95 94 94 93 90 91 89 87 92 93 95 84 57 67 100 100 99 76 63 72 57 89 72 82 75 77 78 85 83 82 88 91 89 76 92 74 78 86 95 83 81 70 76 84 80 89
99 91 92 93 94 90 86 85 88 83 81 71 87 64 51 96 100 88 83 74 72 65 87 63 83 77 84 79 70 87 90 96 82 86 88 91 85 80 74 80 88 86 73 77 78 89 86
95 92 93 85 88 89 89 98 91 91 77 71 50 86 63 72 100 100 87 75 64 86 91 79 83 88 91 86 81 92 99 99 94 86 90 90 85 82 83 76 80 68 73 76 81 86 90
98 97 95 93 92 89 93 84 85 91 87 91 85 70 79 73 93 100 95 72 95 93 63 84 90 83 75 74 70 78 80 92 99 99 100 100 97 90 83 90 81 70 83 99 91 93 94
96 92 90 95 92 89 95 87 95 95 91 86 80 89 82 60 78 100 97 97 97 66 80 63 79 80 76 70 64 69 71 94 94 98 95 96 99 96 83 86 94 86 83 86 89 92 91
98 93 87 94 89 92 97 81 96 87 93 83 95 85 95 79 92 99 98 98 83 76 70 78 70 76 79 74 70 66 77 76 72 79 79 98 100 83 82 78 79 80 85 59 68 65 73
96 89 84 91 88 93 81 86 91 84 84 93 99 99 99 88 100 100 100 90 77 66 65 62 71 68 83 80 73 71 71 67 71 74 66 73 96 82 82 73 72 73 65 68 80 71 71
98 88 87 93 89 86 84 80 79 95 92 99 85 99 100 100 100 100 99 89 67 65 62 57 71 75 73 81 69 71 74 65 69 68 64 65 76 84 80 91 86 75 70 65 68 74 68
98 86 89 94 90 85 89 80 80 81 92 100 98 100 100 100 99 98 99 74 63 70 64 62 64 72 71 78 70 69 74 70 70 63 73 71 83 96 87 71 68 77 72 59 68 69 78
97 86 90 98 92 89 91 87 83 85 98 98 100 99 100 100 100 100 93 87 74 80 72 64 68 63 65 72 70 70 76 71 64 68 66 58 82 92 75 64 62 73 72 67 67 69 78
91 88 92 98 89 88 90 85 84 85 98 99 99 99 100 100 100 97 100 100 98 70 70 61 64 59 62 68 69 80 83 78 66 74 68 59 76 69 79 66 73 76 76 68 65 77 68
90 90 96 92 87 84 89 80 84 92 99 98 99 99 100 100 99 100 93 98 100 84 67 58 60 61 66 76 76 83 84 76 71 70 72 66 86 84 82 78 74 74 74 75 76 63 59
91 96 100 90 91 85 83 80 84 97 100 99 98 98 98 98 99 100 99 100 84 75 68 62 69 70 64 68 69 81 77 70 68 72 75 75 96 73 83 73 69 67 70 76 77 71 67
92 98 96 92 94 82 78 79 88 94 99 98 100 100 98 100 100 100 99 80 73 60 64 60 64 68 64 62 59 60 62 69 72 73 80 76 84 85 88 78 71 66 61 73 73 72 72
95 99 92 90 92 77 81 81 92 92 100 100 98 100 97 97 100 98 85 77 75 68 68 73 60 61 63 63 62 62 64 69 73 82 66 76 82 86 91 73 75 52 51 56 64 63 70
95 98 94 98 84 87 86 91 86 95 92 100 94 100 98 100 98 82 78 77 81 76 87 84 76 68 64 61 77 78 85 69 73 84 79 64 79 95 91 93 61 54 56 51 51 47 64
97 100 99 96 88 89 91 77 90 98 97 94 99 99 87 83 89 93 80 76 87 92 89 93 79 67 61 78 77 86 95 80 86 77 75 68 66 77 86 90 72 51 49 46 45 57 68
90 90 96 92 87 89 95 99 97 99 98 98 98 81 68 81 91 87 88 87 82 88 95 87 74 66 62 86 81 79 87 75 88 88 96 89 81 88 81 80 80 60 50 46 57 45 70
94 90 94 87 87 94 100 98 93 94 99 100 86 59 58 78 91 86 81 83 80 77 85 81 79 74 80 98 84 83 83 85 82 76 89 86 87 90 85 94 82 54 58 57 51 62 68
95 93 85 73 78 95 99 96 86 93 98 99 74 64 62 65 85 85 86 83 83 82 80 77 75 76 70 91 85 87 82 87 81 80 76 84 71 75 75 73 54 56 56 54 53 59 67
Wind_Speed
23 24 25 26 25 24 26 26 26 25 25 27 21 18 21 20 22 23 20 18 16 19 17 16 13 13 10 8 14 10 11 10 10 9 8 7 10 11 9 5 12 18 16 14 26 24 18
24 25 24 26 25 26 25 26 27 28 24 21 17 15 10 19 29 26 20 15 13 19 16 11 11 11 12 11 9 8 10 10 10 10 9 9 8 9 13 9 14 9 18 29 32 31 18
25 25 25 24 24 24 25 24 25 28 29 24 16 17 24 25 25 29 20 15 14 15 13 12 10 12 13 20 12 11 13 14 14 13 12 11 12 10 6 6 22 14 11 7 28 22 7
24 25 23 23 23 23 23 24 25 25 27 28 25 20 24 21 19 26 18 14 15 12 11 7 3 10 11 15 12 12 12 12 14 12 12 14 12 14 9 14 5 5 2 6 11 12 6
26 26 25 24 24 25 25 25 26 24 25 30 26 20 21 13 16 23 17 12 11 8 6 2 5 9 8 7 10 11 12 14 13 14 14 12 7 7 9 4 5 7 6 10 1 12 8
26 25 26 25 25 25 26 27 26 27 27 27 28 21 27 12 21 22 15 10 5 6 6 7 9 6 10 5 7 6 6 4 5 7 8 5 5 2 2 3 4 10 8 3 4 7 9
26 27 26 26 27 26 26 27 26 26 27 26 27 21 22 10 17 21 12 5 2 3 10 11 9 7 5 4 5 3 2 2 3 4 2 5 4 3 5 12 10 9 10 6 3 5 6
28 25 27 27 26 28 28 26 26 26 29 29 26 25 20 17 15 15 10 6 5 1 5 12 19 16 13 8 4 2 3 0 3 3 2 3 5 5 3 3 4 8 16 8 8 9 5
28 28 29 28 29 29 29 29 28 29 29 30 27 25 23 21 18 15 12 8 6 4 1 4 14 9 6 7 3 3 3 3 4 2 5 5 2 2 4 3 5 9 15 9 6 7 7
30 30 32 30 31 31 31 32 31 30 31 32 30 25 29 24 17 19 13 9 7 4 3 4 5 4 5 5 3 3 4 4 3 3 3 5 1 2 7 0 2 4 4 10 14 7 2
32 31 32 31 33 31 32 31 30 32 34 36 31 27 27 19 15 13 6 8 9 4 3 2 3 5 4 5 2 3 5 4 4 3 2 1 1 4 4 3 2 1 7 6 4 5 4
32 32 31 32 31 32 33 32 30 29 32 33 30 31 21 22 18 11 8 11 10 3 4 3 5 4 3 5 3 4 3 8 7 1 3 2 1 1 1 6 0 8 13 7 5 3 2
31 34 34 31 31 32 35 37 35 31 30 31 30 34 21 29 22 15 15 15 2 3 2 4 4 4 3 3 3 3 3 2 1 2 0 1 2 1 3 7 7 5 2 2 2 3 1
32 34 37 33 32 32 35 37 32 31 31 32 35 36 33 35 21 20 22 2 3 2 4 1 4 5 3 1 2 2 2 2 5 3 2 4 3 6 7 3 3 1 1 2 4 3 3
31 33 36 34 31 33 34 37 33 32 32 33 37 39 24 22 24 28 17 2 6 4 5 7 3 4 1 1 1 2 2 2 2 2 2 4 4 4 6 1 0 0 4 2 4 3 4
32 33 33 34 33 33 36 34 33 32 33 34 36 31 8 16 27 30 3 3 1 2 1 2 3 2 4 4 3 1 1 1 3 1 3 2 5 5 5 4 3 2 2 1 3 3 3
30 31 31 33 32 34 35 32 32 30 32 29 33 13 10 26 32 14 2 4 1 3 3 3 3 4 3 4 3 2 1 2 3 3 3 2 3 1 2 2 2 4 3 3 4 3 3
29 29 30 32 34 34 33 32 31 30 31 24 13 3 1 30 4 2 2 2 3 4 5 3 3 4 5 4 3 2 2 1 8 5 4 2 5 3 1 1 2 1 3 1 2 1 3
29 27 28 31 33 33 32 31 28 28 26 28 15 6 8 22 2 3 1 3 4 3 3 3 1 2 2 4 4 2 2 4 4 4 1 1 3 3 5 4 3 4 3 3 4 3 1
28 25 28 30 32 31 30 28 27 27 27 16 7 3 5 6 4 4 3 3 1 4 3 3 3 4 4 3 5 3 2 4 4 3 7 4 4 3 4 2 0 2 3 3 4 3 2
27 25 27 31 30 29 31 28 26 25 17 23 3 3 3 2 1 3 2 2 3 4 1 1 3 3 5 4 3 3 2 1 4 5 5 4 4 4 4 4 2 1 1 1 3 3 3
26 25 28 32 30 28 26 26 25 24 16 12 3 3 1 2 11 5 2 2 4 4 1 0 5 4 3 5 5 6 5 2 2 5 3 3 1 2 6 6 4 1 1 2 1 3 3
25 25 28 29 29 27 27 25 24 20 15 5 3 3 1 2 2 4 4 2 3 2 6 2 7 5 4 3 6 10 8 9 6 5 3 3 4 2 2 5 7 4 3 4 2 1 6
24 25 28 29 28 30 27 25 23 19 7 14 22 8 3 1 2 3 4 7 2 2 1 4 6 4 3 24 24 19 21 16 14 7 3 5 4 2 2 2 1 3 1 1 4 3 4
24 25 27 27 29 28 25 25 25 18 11 10 11 10 4 1 1 3 4 3 2 7 4 3 5 7 16 4 4 4 4 4 5 6 6 4 4 3 2 2 4 2 2 2 3 2 4
23 25 26 28 29 27 26 28 17 11 1 7 15 11 4 5 1 1 1 4 2 3 2 3 5 16 3 3 3 2 2 2 0 3 4 3 5 4 2 3 3 4 3 2 2 3 1
23 25 27 27 28 29 29 21 11 6 4 11 15 7 3 6 2 1 2 3 1 5 3 3 3 3 5 3 3 2 1 1 3 6 3 1 2 3 2 2 6 5 3 1 3 4 2
22 24 27 27 29 31 26 11 4 9 12 16 12 6 2 6 7 2 2 2 1 4 4 5 4 3 4 2 2 2 2 3 2 3 4 5 4 3 2 1 5 5 4 5 3 2 5
19 22 24 26 28 27 19 9 3 12 21 13 8 10 10 5 9 12 12 9 6 4 8 7 3 3 5 4 2 3 1 1 3 2 1 2 5 4 7 5 2 6 3 4 4 5 8
Wind_Direction
356 352 351 352 352 350 346 349 343 329 328 305 319 320 295 298 288 295 294 308 314 311 300 284 263 289 298 286 269 279 273 248 267 292 312 296 265 253 249 248 232 225 228 219 271 250 252
350 350 354 353 353 353 352 350 341 346 338 334 302 301 304 296 286 289 296 305 306 306 296 279 263 283 284 263 297 281 275 265 269 285 297 280 253 282 262 252 241 189 222 229 250 262 246
352 349 351 351 350 350 352 348 347 347 347 342 326 306 300 287 284 282 289 300 302 296 292 276 238 263 271 261 287 285 281 278 272 280 286 276 273 251 307 267 235 231 203 239 255 239 194
351 347 349 349 349 349 350 346 342 344 345 344 335 313 297 296 293 268 281 294 300 307 287 281 235 249 259 287 280 284 284 272 281 276 282 286 281 259 203 270 268 146 84 292 191 220 162
348 349 348 347 347 348 349 345 345 344 348 342 340 325 317 300 292 267 272 290 302 294 266 210 247 244 264 269 283 303 286 269 267 263 272 290 274 228 273 235 208 139 253 214 144 184 157
345 345 343 343 341 341 344 345 346 347 346 343 346 335 331 286 268 258 273 284 294 265 238 200 227 251 247 261 305 330 340 237 234 265 278 218 224 245 247 194 207 164 207 143 145 185 190
343 340 339 338 339 341 339 340 344 343 341 340 341 336 351 308 265 262 275 252 198 197 210 198 199 219 274 276 308 335 26 70 198 254 261 204 244 242 282 229 254 145 134 132 122 164 198
336 335 335 335 337 336 338 342 343 341 340 339 337 339 330 349 243 253 266 222 208 247 279 250 240 239 266 274 261 282 265 276 238 291 261 252 252 177 218 352 192 131 124 112 72 124 53
334 332 331 334 334 334 334 335 337 338 338 344 341 335 344 313 267 273 266 236 215 251 5 268 225 230 232 204 233 230 200 209 231 231 246 273 297 163 130 264 139 143 149 158 125 118 108
333 331 330 329 329 329 330 332 332 333 330 334 334 337 333 341 272 266 254 192 190 207 66 212 209 210 183 191 246 162 188 193 220 275 262 276 175 227 163 148 324 158 150 169 150 175 125
329 330 329 328 327 328 324 325 326 324 323 325 331 325 325 320 252 217 198 181 180 152 8 133 157 161 183 192 167 214 180 175 244 217 231 317 37 129 201 144 135 130 119 130 118 99 105
327 326 326 326 321 324 322 324 321 318 317 318 325 322 317 304 244 218 162 156 161 57 243 195 141 172 181 201 198 176 187 211 265 343 359 285 314 355 264 146 236 111 104 81 55 63 50
324 325 321 321 326 325 323 326 323 321 316 314 314 314 311 306 266 216 165 157 102 176 33 199 180 160 204 175 159 189 162 190 238 187 245 22 51 356 1 80 15 53 37 105 63 52 92
324 325 323 322 321 324 322 328 329 323 319 317 317 312 302 283 231 185 163 129 178 180 188 122 128 119 143 72 25 13 57 10 176 191 68 43 56 10 336 53 111 62 326 105 108 136 127
323 325 323 325 324 324 324 327 326 326 322 321 317 318 299 221 196 176 162 188 198 189 173 147 101 111 153 83 123 67 80 263 247 193 132 114 56 332 52 330 337 330 26 349 113 30 67
326 325 325 322 324 322 327 328 327 328 328 326 331 323 295 187 177 170 160 217 185 178 91 126 138 137 163 174 121 51 326 246 309 144 201 201 89 3 351 338 37 84 268 117 10 104 83
325 323 323 322 323 325 329 330 330 331 332 334 341 324 171 175 163 154 159 214 347 158 213 154 150 115 123 147 142 134 321 336 345 8 87 109 82 65 355 20 321 352 25 41 116 75 140
326 322 322 321 325 329 330 331 333 335 339 334 331 305 319 163 108 144 144 184 45 248 205 270 135 115 134 165 126 104 108 297 348 331 44 21 121 97 149 268 276 312 343 57 87 351 44
324 322 324 323 326 330 331 333 338 341 345 335 327 303 139 163 108 142 44 77 21 307 201 228 128 123 131 146 100 73 80 360 14 36 48 171 40 77 356 353 355 42 22 77 82 74 40
322 325 322 324 328 332 332 335 340 341 340 343 327 317 49 155 5 101 125 89 284 262 255 254 106 85 102 84 37 132 97 17 18 72 45 73 61 97 148 143 354 355 9 37 84 73 183
324 326 323 325 329 331 333 334 337 338 344 339 317 296 346 123 127 95 88 111 169 273 207 300 54 140 135 105 74 89 79 91 34 6 24 68 68 57 70 39 43 11 111 346 56 168 90
326 327 326 330 331 333 334 335 331 334 326 330 226 249 13 55 159 125 150 89 214 222 101 251 131 135 107 142 165 183 141 159 138 19 54 36 101 66 4 356 22 89 349 152 86 127 72
331 328 329 330 332 334 332 331 331 327 332 312 328 249 57 30 108 166 184 143 285 282 16 93 142 106 85 115 117 119 106 96 120 132 107 80 121 70 312 336 342 333 218 182 161 166 149
332 331 332 330 334 333 334 330 329 325 264 294 288 269 169 194 186 189 177 174 280 346 104 11 84 94 115 115 101 90 86 82 73 33 86 125 94 76 198 3 37 234 125 170 204 228 221
332 333 329 332 333 336 335 331 333 319 229 279 220 195 162 118 186 198 147 130 71 69 44 40 36 128 136 92 71 66 3 41 28 26 16 69 121 87 106 190 280 348 337 170 115 263 190
333 332 331 334 337 339 334 328 330 334 340 197 186 205 177 125 10 323 81 165 179 102 50 35 81 139 87 69 69 93 154 150 351 39 14 53 92 106 164 93 225 250 281 214 152 309 240
338 335 334 338 339 339 333 333 310 281 175 177 175 161 155 107 74 98 52 103 29 109 101 104 107 56 75 47 65 104 190 224 157 155 179 102 103 154 179 239 288 244 259 100 75 236 166
340 336 334 342 340 341 345 322 225 202 173 167 152 155 167 99 69 91 77 112 153 139 123 157 100 27 66 82 161 159 147 214 102 175 180 167 138 186 113 163 276 190 108 163 209 186 184
337 336 339 343 348 350 6 34 100 167 160 170 148 90 79 93 111 94 84 82 76 112 125 144 138 141 162 92 67 117 136 122 152 225 24 223 182 184 180 216 219 190 218 196 224 203 196